STARLINK-3952 (52534 NORAD) Tracking and Keplerian Element Data

This shows tracking and keplerian element data for the satellite.

Feedback or suggestion? Click here.




ElementValue
Catalog52534
NameSTARLINK-3952
Epoch Orbit970
Epoch Day192.91667824
Epoch Year2022
RAAN10.1412
Inclination53.2174
Eccentricity0.0001456
Argument of Perigee58.5171
Mean Anonmoly262.145
Mean Motion15.11040091
Decay Rate-0.00718758
L11 52534U 22051B 22192.91667824 -.00718758 00000+0 -45652-1 0 9998
L22 52534 53.2174 10.1412 0001456 58.5171 262.1450 15.11040091 9703

Live tracking and technical data element details for STARLINK-3952 (NORAD 52534). STARLINK-3952 can be tracked NOW for your location showing map with azimuth and elevation plus other details from your city location.

Track the satellite on the map from your city or location and see movement details for azimuth, elevation, latitude, longitude, range, height, and movement on the map or in text.







IsCatalogInMostPopularTable: catalog: 52534, numindb: 7
Update: records affected: 1



GetName: 52534 STARLINK-3952

Hit Count: updated at: Sun, 14 Aug 2022 01:13:54 GMT